Flag for Canada Weather past 2 weeks in Mississauga, Ontario, Canada

Now
72 °F

Passing clouds.


Feels Like: 71 °F
Forecast: 68 / 79 °F
Wind: 5 mph from East

Location: Toronto Pearson International Airport

Current Time: Sep 4, 2015 at 6:38:02 AM

Latest Report: Sep 4, 2015 at 6:00 AM


Visibility: 15 mi

Pressure: 30.03 "Hg

Humidity: 83%

Dew point: 66 °F

Location of MississaugaLocation

Historic Weather in Mississauga — Graph

°F

Mississauga temperature yesterday

Maximum temperature yesterday: 86 °F (at 2:00 PM)
Minimum temperature yesterday: 72 °F (at 6:00 AM)
Average temperature yesterday: 76 °F

Past Weeks' High & Low Weather Summary

 TemperatureHumidityPressure
High91 °F (Sep 2, 3:00 PM)100% (Sep 1, 3:00 AM)30.22 "Hg (Sep 1, 3:00 AM)
Low54 °F (Aug 28, 5:00 AM)44% (Aug 24, 2:00 PM)29.71 "Hg (Aug 20, 6:00 AM)
Average69 °F71%30.01 "Hg
* Reported Aug 20 5:00 AM — Sep 4 5:00 AM, Mississauga, Weather by CustomWeather, © 2015

Note: Actual official high and low records may vary slightly from our data, if they occured in-between our weather recording intervals... More about our weather records

Advertising

Mississauga weather history for previous 24 hours

 ConditionsComfort  
Time TempWeatherWind HumidityBarometerVisibility
5:00 AM
Fri, Sep 4
72 °FPartly cloudy.9 mph88%30.02 "Hg15 mi
4:00 AM73 °FPassing clouds.7 mph83%30.01 "Hg15 mi
3:00 AM73 °FPassing clouds.6 mph83%29.99 "Hg15 mi
2:00 AM73 °FPassing clouds.6 mph78%29.98 "Hg15 mi
1:00 AM72 °FPassing clouds.No wind78%29.99 "Hg15 mi
12:00 AM72 °FPassing clouds.5 mph78%29.98 "Hg15 mi
11:00 PM
Thu, Sep 3
72 °FPassing clouds.3 mph78%29.96 "Hg15 mi
10:00 PM72 °FPassing clouds.2 mph78%29.95 "Hg15 mi
9:00 PM72 °FPassing clouds.3 mph78%29.93 "Hg15 mi
8:00 PM72 °FBroken clouds.5 mph73%29.93 "Hg15 mi
7:00 PM73 °FCloudy.14 mph69%29.96 "Hg15 mi
6:48 PM72 °FCloudy.13 mph73%29.95 "Hg15 mi
6:00 PM81 °FCloudy.6 mph70%29.95 "Hg15 mi
5:00 PM84 °FPartly sunny.7 mph62%29.90 "Hg10 mi
4:00 PM84 °FThunderstorms. More clouds than sun.15 mph62%29.89 "Hg10 mi
3:00 PM84 °FPartly sunny.9 mph66%29.92 "Hg10 mi
2:00 PM86 °FMore clouds than sun.9 mph62%29.92 "Hg10 mi
1:00 PM84 °FBroken clouds.2 mph62%29.93 "Hg10 mi
12:00 PM82 °FOvercast.2 mph66%29.94 "Hg10 mi
11:00 AM79 °FOvercast.No wind79%29.95 "Hg10 mi
10:00 AM77 °FFog.5 mph79%29.95 "Hg6 mi
9:00 AM75 °FFog.8 mph89%29.95 "Hg6 mi
8:00 AM72 °FFog.7 mph94%29.96 "Hg2 mi
7:00 AM72 °FFog.6 mph94%29.93 "Hg2 mi
6:00 AM72 °FPassing clouds.6 mph94%29.92 "Hg8 mi
Weather by CustomWeather, © 2015

See weather overviewHow to use our weather pages